CZ-6A DEB, 54281

Orbit data source: Space-Track

CZ-6A DEB, 54281 is space debris in SSO originally from a launch on Fri, 11 Nov 2022 UTC launched from the Taiyaun Space Center, China (TSC). Debris objects in space refer to the collection of defunct objects orbiting the Earth. Examples of debris include non-operational satellites, rocket bodies, and fragments generated from explosions, collisions, or faulty payload assembly.

Loading next visibility...
Identifier
54281, 2022-151Y
Orbit
SSO
Country
Flag of CNCN / PRC
Related business
Manufacturer
SAST
Mission
Spacecraft
Bus & Motor
Unknown
Mass
Unknown
Launch date (UTC)
2022-11-11 (3 years ago)
Launch vehicle
Unknown
Launch site
Taiyaun Space Center, China (TSC)
Object type
Payload
Rocket body
Debris
Shape & HBR
Unknown shape, 0.2 m
Radar Cross Section
Small (<0.1 m²)

Expand to show TLE details & history
Last TLE update: 11 hours ago

TLE from 11 hours ago
0 CZ-6A DEB
1 54281U 22151Y   25352.28052071  .00000311  00000-0  11734-3 0  9997
2 54281  98.6032  11.6699 0102156 192.9302 166.9261 14.35412789161770
Epoch: 2025-12-18T06:43Z
TLE epoch observation values (Epoch: 2025-12-18T06:43:56.989Z)
Latitude
-0.00002°
Longitude
-176.45584°
Altitude
847.853 km
Speed
7.392 km/s
True Right ascension
00h 46m 40s
True Declination
0° 00' 00"
Sunlit
Object was in daylight at epoch
Visualization orbit readout
Latitude
Unknown
Longitude
Unknown
Altitude
Unknown
Speed
Unknown
Apparent Right ascension
Unknown
Apparent Declination
Unknown
Sunlit
N/A
Visualization observer readout
Local Sidereal Time
16:17:38
Azimuth
Unknown
Elevation
Unknown
Doppler factor
Unknown
Orbital elements
Apogee altitude
843.858 km
Perigee altitude
697.796 km
Semi-major axis
7,148.964 km
Eccentricity
0.01022
Inclination
98.6032°
RAAN
11.6699°
Arg. of periapsis
192.9302°
True anomaly
167.18765°
Mean anomaly
166.9261°
Eccentric anomaly
167.0572°
Mean motion
3.59069 °/min
Orbital period
100.26 mins
BSTAR
0.00011734
Loading maneuver chart data...
Computing Atmospheric mass density...
Loading historical data...
Loading historical data...
Loading historical data...
Loading historical data...
Loading historical data...
Loading historical data...
Loading historical data...

Documentation

Showing up to 5 results
|